Theta_e
330 330 332 332 333 335 335 335 337 338 339 340 338 337 337 337 336 334 334 332 332 333 335 332 332 332 333 333 334 334 333 332 331 330 327 326 329 326 328 329 330 327 325 324 324 325 321 318 319 324 327 329 328 329 330 329 331 329 325 323 324 326 326
332 330 332 332 333 335 334 335 336 337 338 339 338 337 336 336 337 334 333 332 332 332 335 333 332 332 332 332 332 332 332 332 332 332 329 327 327 328 329 327 326 326 325 325 324 323 320 317 317 318 322 324 326 326 328 329 331 330 327 324 324 326 325
332 331 332 331 332 333 333 334 335 336 337 337 337 336 336 335 336 335 333 332 332 332 335 333 332 331 331 331 332 332 332 332 331 332 331 329 329 329 330 329 327 324 325 323 322 322 322 321 320 318 319 320 319 323 325 328 328 329 328 323 323 325 325
331 330 330 330 331 332 332 333 334 335 335 336 335 335 335 335 335 334 333 333 333 334 335 332 332 332 331 331 332 332 331 331 330 331 330 330 329 329 328 330 330 329 329 326 323 323 323 320 318 319 320 320 321 322 323 327 327 328 329 325 323 324 324
331 330 330 330 331 332 332 332 334 334 334 335 334 334 334 334 334 334 334 333 333 333 334 333 333 333 333 332 331 331 331 331 330 330 330 329 329 329 328 329 330 331 331 329 327 326 324 323 322 322 322 321 321 322 321 324 327 327 327 327 324 323 324
332 331 331 331 332 332 333 333 333 333 333 333 333 333 333 333 334 333 332 332 332 333 334 333 333 333 333 333 332 332 331 330 331 331 329 330 330 329 329 330 331 330 330 331 329 326 326 325 323 321 323 323 320 318 321 324 322 325 326 327 327 324 323
332 332 331 331 332 333 334 334 334 334 333 333 332 333 334 334 334 334 334 333 333 334 334 334 334 334 334 333 333 332 332 332 331 331 331 331 330 330 330 330 329 329 330 330 329 327 325 323 322 321 322 319 319 320 320 321 322 322 323 325 326 326 324
333 332 332 332 332 332 333 334 334 335 334 334 334 335 335 334 334 334 334 334 333 333 334 334 334 334 334 334 334 333 333 333 332 332 331 330 330 329 328 330 330 329 330 330 328 327 327 325 325 324 320 318 317 318 318 320 320 322 322 323 322 324 324
334 333 332 332 333 333 333 334 334 334 335 335 335 335 335 335 334 333 334 334 334 334 334 334 334 334 333 333 333 332 332 333 332 332 332 330 331 330 329 328 328 329 329 328 327 328 327 326 326 325 323 320 317 315 317 317 319 320 324 321 319 322 323
333 332 332 331 332 333 334 334 334 334 335 335 335 335 334 334 334 333 333 333 333 334 334 334 334 334 334 334 333 331 332 331 332 332 331 331 331 329 329 328 330 330 329 326 327 327 327 325 324 325 325 323 321 319 315 314 317 318 322 323 319 319 321
334 334 332 331 333 333 332 333 333 333 334 334 335 335 335 334 333 336 333 333 333 334 334 334 334 334 334 333 333 332 333 331 331 328 329 331 329 329 329 328 328 328 326 326 327 327 325 325 325 325 325 325 325 321 319 316 317 321 321 323 321 318 319
334 334 332 332 333 332 332 332 333 334 334 334 334 334 334 333 333 333 333 333 333 333 334 334 334 334 334 333 332 332 330 330 330 329 328 328 326 328 328 329 326 327 326 326 326 327 326 326 326 326 325 325 324 323 321 319 316 320 324 321 322 320 319
334 333 332 332 332 332 332 333 333 333 333 334 334 334 334 333 333 333 333 333 333 333 333 333 334 334 333 333 332 332 330 330 330 330 327 326 327 328 328 327 326 326 326 327 326 326 326 325 326 326 325 325 324 324 323 320 317 318 321 323 323 318 319
332 333 333 333 332 332 333 332 333 334 334 333 334 333 333 333 333 333 333 333 333 333 333 333 333 334 333 332 332 332 330 330 330 328 327 325 326 326 327 326 327 326 326 326 326 325 325 326 326 326 325 324 323 323 322 320 318 318 318 318 320 317 317
331 331 332 333 332 332 332 332 332 333 333 334 334 333 333 333 333 333 333 333 334 334 334 334 333 333 332 331 331 331 331 330 329 328 328 327 325 326 325 326 327 325 324 326 325 325 326 326 326 325 325 324 323 322 323 322 320 319 317 317 315 316 316
330 329 330 331 332 332 332 332 333 333 333 333 333 334 333 333 333 333 333 333 334 334 334 334 334 333 333 332 331 331 332 331 329 329 328 328 325 324 324 325 326 324 325 326 325 326 326 326 326 326 325 325 324 323 323 323 321 318 317 315 314 314 314
329 329 329 331 332 333 333 333 333 333 333 333 333 333 333 333 333 333 333 333 333 334 334 334 333 333 333 332 332 332 331 331 330 330 329 327 325 325 326 324 324 324 324 325 324 324 325 326 326 326 325 325 324 324 323 323 323 321 317 315 313 314 313
327 328 329 330 331 332 333 332 332 333 333 332 333 332 332 333 333 333 332 333 333 333 334 334 333 333 332 332 333 332 332 331 331 330 329 328 327 325 325 325 325 323 323 323 321 322 323 324 325 325 324 324 324 324 324 324 324 321 317 316 313 315 314
326 327 329 331 332 332 332 332 332 333 333 332 332 333 332 333 333 333 333 333 334 334 334 334 334 333 333 332 332 332 332 331 330 330 329 329 327 325 326 325 324 324 323 322 321 323 323 323 322 322 323 322 323 323 322 322 323 321 319 317 314 311 312
328 328 329 331 332 332 332 333 333 333 333 333 332 332 333 333 333 334 334 334 334 333 333 333 333 333 332 332 332 331 329 328 327 327 327 327 325 325 325 325 323 323 323 322 322 323 321 320 319 319 319 320 320 320 320 321 320 319 318 316 315 314 312
329 330 331 333 333 332 333 333 333 333 333 333 332 333 333 333 333 334 333 333 333 333 333 332 331 331 331 331 329 327 326 325 326 326 324 324 324 324 325 324 323 323 323 322 322 320 317 316 315 316 314 316 317 318 319 318 318 317 315 315 315 313 313
330 331 332 333 333 333 333 333 333 332 332 332 333 334 334 334 332 331 331 332 332 332 332 331 330 330 329 328 327 326 325 325 325 324 323 324 324 325 324 324 323 322 321 321 318 317 316 315 316 316 315 316 316 317 315 316 317 315 314 314 313 313 313
331 331 332 332 333 333 333 333 332 332 332 334 334 334 333 332 332 332 331 329 329 328 329 329 326 319 321 327 326 325 324 324 325 324 323 322 322 323 323 323 323 325 321 318 315 310 308 309 312 315 316 315 315 314 315 315 314 314 314 313 312 312 311
331 331 331 332 332 332 332 332 332 333 333 333 332 330 330 330 330 330 330 328 327 327 327 327 311 306 308 314 325 325 325 324 325 325 324 323 322 321 320 321 322 322 318 315 309 302 301 300 299 300 301 304 308 313 314 313 312 313 313 313 311 312 312
330 331 331 331 332 332 332 332 332 332 332 330 329 328 329 329 328 327 327 327 326 327 326 317 302 303 304 306 315 326 326 325 325 324 324 324 322 320 319 318 317 316 314 311 308 306 304 299 297 297 296 296 295 294 297 309 312 310 311 312 310 312 312
330 330 331 332 331 331 331 331 332 331 330 329 328 327 327 327 326 326 326 325 325 325 324 306 302 302 303 302 306 320 327 326 324 324 323 322 320 318 317 315 314 314 314 313 310 307 307 306 302 301 301 302 302 298 292 291 295 309 313 313 313 310 311
330 330 331 331 330 329 329 330 331 332 330 328 327 327 326 326 326 325 325 325 324 324 324 307 301 301 301 300 302 312 328 326 325 324 323 321 319 317 316 315 314 313 313 311 308 308 307 306 305 305 303 302 302 302 299 297 296 297 305 312 313 312 310
330 330 331 330 329 329 329 329 330 329 329 328 327 326 325 325 326 325 325 325 324 323 324 303 300 300 300 299 300 308 328 325 323 322 321 320 319 318 317 316 315 313 311 309 309 308 306 305 304 303 301 300 300 300 300 300 300 303 304 305 308 310 309
330 330 330 329 329 328 329 329 330 328 327 328 326 326 325 326 325 325 325 325 324 322 319 299 299 299 299 299 299 322 325 323 321 319 318 317 317 317 317 316 315 312 310 309 308 301 303 305 304 303 301 301 301 301 301 299 294 296 300 301 302 303 303
330 329 329 328 328 328 328 328 329 327 326 326 325 325 325 325 326 326 324 324 323 321 318 301 297 298 299 297 307 325 323 321 319 317 316 316 316 316 316 316 315 312 310 309 302 296 297 304 304 302 301 301 301 302 302 303 297 294 294 294 294 294 293
330 329 329 329 328 328 328 328 327 327 327 325 325 325 325 325 325 326 324 324 323 322 321 306 296 297 298 299 314 323 321 319 316 315 314 314 314 314 315 316 314 311 309 308 296 295 296 304 304 302 302 302 302 302 302 303 303 302 296 296 295 295 295
330 329 329 328 328 327 327 327 326 326 326 326 325 325 324 324 324 324 323 323 321 322 320 306 296 297 298 300 315 322 320 318 315 313 313 311 311 312 314 315 312 309 309 304 294 295 296 304 304 303 303 303 302 302 302 301 302 303 303 303 303 304 302
329 328 327 326 326 326 324 324 324 325 325 325 324 323 323 325 324 324 322 321 321 322 317 308 300 296 298 300 307 321 320 318 315 312 312 311 310 310 311 311 308 299 297 295 294 294 295 297 304 304 304 304 302 302 301 301 302 301 301 301 300 301 301
328 328 328 327 325 323 324 323 323 325 325 325 323 323 323 324 324 321 320 320 319 317 316 308 301 297 298 300 303 310 319 319 316 313 312 311 311 310 310 309 308 298 294 294 294 293 294 295 299 305 305 305 305 303 300 304 303 302 302 302 301 301 300
329 329 328 327 325 324 323 323 324 325 325 324 323 322 322 320 321 319 316 317 317 315 314 310 305 297 297 298 301 305 318 318 315 315 313 312 310 310 310 309 307 299 294 294 294 293 294 294 296 305 304 295 293 294 303 302 301 301 301 300 300 299 299
328 329 327 326 325 323 323 323 323 324 323 323 322 320 319 319 319 316 315 315 314 312 310 307 301 302 296 298 298 302 305 309 302 316 315 312 312 312 310 309 308 299 294 294 293 293 293 293 299 300 291 292 294 294 298 301 300 301 300 300 300 299 298
328 327 325 324 324 323 323 323 322 322 323 322 320 319 317 318 318 316 313 311 310 308 307 306 300 300 299 296 296 298 298 300 302 314 316 315 313 311 309 309 305 295 294 294 293 293 293 296 297 291 292 293 294 296 301 300 300 300 299 299 299 298 297
Wind_Speed
10 9 8 7 6 6 7 8 7 7 8 8 9 9 9 9 8 8 8 7 7 7 6 6 7 6 5 4 5 6 4 5 6 6 6 5 4 2 0 3 3 2 2 1 3 4 3 4 3 2 3 5 6 6 8 9 7 7 6 5 5 6 5
7 7 6 6 8 8 9 8 9 8 8 8 8 8 8 9 9 8 8 7 7 7 7 6 5 5 7 7 6 5 6 5 6 5 5 5 5 6 3 1 1 1 2 1 2 3 4 4 5 4 5 4 4 3 7 8 6 6 7 6 5 6 5
8 6 7 7 8 8 9 9 9 8 8 8 7 7 8 9 9 8 8 9 9 8 7 7 6 5 5 5 6 7 6 6 5 6 7 5 6 5 5 4 3 1 2 2 1 1 1 3 6 5 5 7 7 5 9 7 10 7 6 8 8 6 5
9 8 8 8 7 8 9 9 9 8 7 7 7 7 8 8 8 8 8 8 8 7 7 6 7 7 6 6 6 6 6 7 6 6 5 5 5 4 5 5 6 5 6 6 6 4 5 4 2 7 7 7 7 5 6 10 9 8 7 7 7 7 6
10 9 10 10 10 11 10 9 7 7 7 7 6 7 7 7 7 7 8 7 7 6 7 7 6 6 6 5 5 5 5 6 5 6 5 5 6 5 6 5 6 6 6 6 6 7 6 5 4 8 8 3 4 5 1 4 6 8 7 6 7 7 6
11 11 10 10 10 10 9 8 9 9 7 7 7 7 6 8 7 7 7 7 6 7 7 7 6 6 6 6 6 6 5 6 7 7 6 6 7 7 7 6 5 4 6 6 5 6 4 5 7 9 9 4 7 2 2 2 3 5 7 10 9 7 7
12 11 10 10 9 9 9 10 11 10 9 9 8 8 9 9 8 8 8 8 8 7 7 7 7 6 6 6 6 6 6 6 5 6 6 6 5 7 5 4 5 6 7 6 6 4 6 7 7 8 7 1 2 4 1 3 2 3 5 6 6 5 6
11 11 10 9 9 9 8 8 8 8 9 9 9 9 10 9 9 8 8 7 7 7 6 6 6 6 6 5 5 6 5 4 5 5 5 6 6 6 6 6 6 6 5 5 5 7 6 8 8 6 5 6 4 3 4 2 3 7 2 4 5 6 7
8 8 8 8 8 8 8 8 9 8 8 9 9 8 8 9 9 8 8 8 7 6 6 7 7 6 6 6 5 5 5 4 5 6 5 6 6 7 6 5 4 6 4 3 4 6 6 6 7 4 5 6 7 5 4 5 5 7 6 4 3 6 8
8 9 9 8 8 7 7 7 7 8 7 7 8 8 8 7 8 8 8 7 7 6 6 6 6 6 6 6 6 5 6 5 6 7 5 6 6 5 5 6 5 5 2 4 5 5 4 3 6 6 4 7 7 6 4 4 6 7 6 6 5 6 7
10 8 7 8 8 7 6 5 4 5 7 7 6 7 7 8 7 8 7 7 6 6 6 6 6 6 6 5 5 5 5 5 5 2 4 5 4 4 4 4 4 4 3 4 3 3 3 4 6 5 5 4 4 7 5 4 5 4 4 6 4 4 7
8 8 7 8 8 8 8 7 7 7 6 6 6 5 6 7 7 7 7 6 6 6 5 5 5 5 6 5 5 5 5 5 5 5 3 3 3 4 5 5 2 1 1 3 4 4 3 3 4 3 2 3 4 5 5 4 5 2 3 6 6 4 7
4 7 8 9 9 9 9 8 7 7 8 7 7 7 7 8 8 8 7 7 7 6 6 5 6 6 5 5 5 5 5 5 5 6 4 2 3 3 3 2 2 3 3 2 2 1 2 2 3 3 3 4 5 5 5 5 7 5 1 2 2 3 6
6 5 6 7 8 7 7 7 8 7 7 8 7 8 8 8 8 8 8 7 7 7 7 6 6 6 6 6 5 6 5 5 6 5 5 3 2 2 2 2 3 3 3 3 2 2 2 3 3 3 3 4 5 5 5 6 7 6 1 1 1 3 5
7 6 5 7 8 7 7 7 7 6 8 9 8 9 9 8 7 8 8 8 7 7 7 7 7 6 6 6 6 5 5 5 5 5 5 5 3 3 5 5 5 3 3 2 2 2 2 2 3 4 5 5 6 6 6 6 7 6 4 2 3 3 4
12 13 12 9 9 9 8 7 7 8 9 8 8 8 9 8 8 8 8 8 8 7 8 8 7 7 7 7 7 6 5 6 6 6 6 5 4 5 4 4 4 2 3 2 2 2 3 4 5 6 6 6 6 6 6 6 4 5 4 2 2 3 3
11 10 11 10 12 12 10 8 7 9 9 8 9 8 7 8 8 9 9 8 8 8 7 7 7 7 7 7 7 7 6 6 6 6 6 4 5 5 5 4 4 3 2 2 1 2 3 3 5 5 6 5 6 6 6 6 5 4 3 4 3 3 3
11 12 12 10 12 11 10 9 8 9 8 8 8 7 6 7 8 8 9 9 8 8 8 8 7 7 6 7 7 7 7 6 6 4 3 4 4 6 5 4 4 3 3 4 2 2 3 4 4 5 6 5 5 6 5 6 6 4 4 4 3 1 3
11 13 13 10 10 11 12 11 11 10 9 9 8 7 8 8 9 10 9 8 7 7 6 6 7 7 7 7 7 7 6 5 5 4 4 3 4 5 5 4 4 4 4 4 4 4 4 5 3 4 5 4 4 5 5 6 6 6 5 5 5 4 5
13 11 11 11 10 9 10 11 12 11 9 8 9 8 9 10 9 8 7 6 5 4 3 4 4 4 5 5 6 6 5 4 3 3 3 4 5 4 4 5 5 4 4 4 5 5 5 4 4 5 4 4 3 4 4 4 3 4 4 4 2 2 4
12 10 9 9 11 11 11 11 11 9 8 9 9 10 11 10 7 5 6 6 7 8 9 8 7 7 6 6 7 7 8 8 6 4 4 3 3 4 4 5 5 5 4 4 5 4 4 5 3 5 3 2 3 3 3 2 3 3 3 3 3 4 4
5 6 7 8 10 11 11 10 9 8 9 9 9 11 10 8 8 8 8 9 9 9 10 10 10 10 10 8 7 6 5 7 9 8 4 3 3 4 4 4 4 4 4 2 5 6 4 4 4 4 3 2 3 3 3 2 3 3 3 3 3 3 5
8 8 9 10 10 10 9 9 9 10 10 11 11 10 8 9 10 10 9 7 6 7 6 6 8 12 9 8 7 7 4 3 5 8 7 5 4 4 4 3 4 7 7 4 4 6 3 3 1 2 2 4 4 4 3 3 3 3 3 4 4 5 5
9 10 11 10 10 10 10 9 9 10 11 11 10 8 8 9 8 8 8 8 7 6 6 6 12 14 14 14 10 9 8 6 6 7 7 7 6 5 4 3 2 5 8 6 4 7 6 5 6 7 7 5 3 1 5 4 3 3 4 3 3 4 5
9 10 10 11 11 10 10 10 10 10 10 9 7 7 8 8 8 7 6 5 5 5 4 6 13 13 13 13 9 7 7 7 7 7 7 7 7 6 6 5 3 1 6 6 5 5 7 7 8 9 8 8 8 9 5 2 4 3 4 4 4 5 5
10 10 10 10 10 10 10 10 9 9 11 9 8 9 8 8 8 8 7 7 6 5 4 8 12 13 14 14 12 7 5 6 7 7 8 8 8 7 5 5 4 1 3 10 5 4 5 6 6 8 8 8 9 9 7 6 3 3 4 4 5 5 6
11 10 10 10 10 10 10 11 10 10 9 8 9 8 8 9 8 8 7 7 7 6 6 10 14 14 13 13 13 10 6 7 6 7 8 9 8 7 8 6 5 4 3 5 4 5 5 6 3 4 6 6 5 6 7 8 8 7 2 4 6 7 6
10 11 11 11 10 10 10 10 10 9 9 11 10 10 10 9 9 8 8 7 7 7 6 11 11 11 11 12 14 10 6 6 6 5 5 7 7 7 6 5 6 6 6 6 4 6 6 6 6 5 5 5 4 4 5 6 6 5 4 2 1 2 3
11 11 11 11 11 11 11 12 11 10 9 8 8 7 6 7 8 8 7 6 6 6 4 10 12 12 12 11 11 7 6 7 6 6 6 6 6 6 7 7 7 6 6 6 6 8 6 6 7 7 6 4 4 4 5 4 5 5 4 4 4 3 2
12 12 12 12 11 11 11 11 10 8 9 9 9 9 8 7 7 7 7 7 7 6 5 8 11 11 11 11 9 6 6 6 5 7 6 6 6 6 6 6 6 6 6 5 7 10 9 8 8 7 6 5 3 5 5 4 6 8 9 10 10 9 8
12 12 11 12 11 10 10 9 10 9 11 11 10 9 8 7 6 7 8 8 9 8 6 7 10 10 12 14 10 8 7 7 6 6 6 5 4 5 6 8 7 8 7 6 9 10 10 9 8 6 6 7 6 6 3 2 2 4 5 8 11 12 12
11 11 10 9 10 10 10 10 9 8 8 8 7 7 7 7 7 6 7 7 8 7 5 5 10 11 13 14 10 7 7 6 7 6 6 5 3 4 5 6 8 7 7 9 12 11 10 8 8 7 7 7 7 6 3 1 2 4 4 6 7 6 8
9 9 9 8 8 9 8 8 8 8 8 6 6 6 6 7 8 8 7 7 7 6 6 6 9 13 12 11 11 8 7 7 7 7 6 7 6 3 4 5 6 8 10 13 12 12 10 10 9 6 6 7 7 7 4 2 2 3 5 5 5 5 5
11 9 9 10 9 8 8 9 9 8 7 6 6 6 7 7 8 8 7 6 5 5 7 9 8 13 12 10 12 11 7 7 7 7 7 6 6 6 5 5 4 8 11 12 13 11 9 9 9 7 6 7 6 6 6 4 4 5 6 5 5 5 5
11 10 10 10 9 9 8 8 8 8 7 7 8 7 6 6 7 5 4 4 5 5 6 9 9 9 11 10 11 10 7 6 8 9 8 6 6 5 6 6 6 8 12 12 12 11 10 10 8 5 4 5 10 11 5 5 4 4 4 5 5 5 5
10 10 10 10 11 10 8 8 7 7 7 8 8 7 7 6 6 6 5 3 4 6 6 6 9 9 10 9 8 7 7 8 10 8 8 8 8 6 6 6 6 11 14 13 11 10 9 10 6 4 9 12 11 11 7 4 5 5 5 5 6 5 5
10 10 11 10 9 9 9 8 8 7 8 8 8 7 6 6 6 7 7 5 4 4 5 6 6 7 7 7 3 3 6 10 12 7 7 7 6 7 7 7 8 12 13 13 11 10 9 7 7 11 12 13 12 8 6 6 5 5 6 6 6 5 5
Wind_Direction
191 189 189 191 188 190 192 189 188 195 194 192 185 187 185 183 184 192 191 185 180 183 174 184 187 189 176 174 171 174 145 155 160 162 190 174 171 233 290 239 239 103 113 32 143 206 213 274 276 298 285 242 224 210 217 214 209 199 188 190 179 185 188
184 183 177 176 184 188 191 188 190 194 194 195 189 186 186 184 186 190 187 185 183 183 186 187 188 170 180 174 162 151 170 169 175 174 155 185 173 198 141 277 96 99 76 57 130 100 169 216 261 198 231 270 270 177 238 221 200 193 187 178 203 195 176
180 162 165 180 185 189 195 193 192 191 193 189 186 185 185 189 189 187 187 188 189 185 183 186 170 166 177 180 177 179 181 175 178 169 187 177 183 190 190 166 144 104 129 89 340 99 76 178 249 260 214 219 241 198 212 214 208 198 179 168 194 193 193
177 165 169 181 183 188 195 194 194 195 188 188 179 184 186 188 192 188 189 195 188 181 177 166 177 184 186 180 176 176 177 178 177 182 185 160 162 176 191 185 198 196 204 188 196 212 196 222 259 261 250 232 240 264 196 213 208 191 187 175 189 195 187
175 175 179 182 186 190 192 188 188 187 195 187 181 179 187 190 190 191 193 187 180 175 182 179 176 182 175 165 162 176 185 188 171 176 172 170 179 191 200 195 211 215 230 212 193 193 186 223 220 270 268 258 281 235 131 209 214 197 186 179 191 191 176
176 177 181 182 186 189 186 182 182 193 185 186 189 181 188 186 189 189 186 184 185 189 186 174 179 172 165 164 169 178 181 182 191 179 169 195 192 192 211 208 201 193 234 241 200 188 191 196 220 255 266 205 252 321 225 169 205 213 198 202 192 188 170
177 177 181 182 187 189 186 185 185 187 188 192 183 191 190 190 189 196 193 192 192 187 178 174 171 173 163 166 169 174 192 204 175 172 188 197 199 217 200 189 195 203 224 218 222 207 191 194 203 217 255 281 251 277 335 235 180 183 224 209 199 184 165
178 176 178 176 179 184 188 190 195 189 189 190 188 197 194 188 191 192 194 191 188 182 173 170 173 168 164 161 171 189 200 177 172 168 187 185 201 205 205 208 208 218 226 214 204 222 198 215 212 202 188 274 293 245 254 231 233 228 200 181 180 181 177
182 171 166 168 177 180 182 187 193 194 196 189 194 196 194 186 190 192 192 194 186 179 174 173 170 168 163 164 179 180 198 172 171 184 197 189 209 205 208 203 201 235 195 147 207 223 212 216 241 208 162 181 213 261 228 245 229 237 196 166 169 187 182
177 181 178 166 165 171 181 191 190 196 197 198 196 191 189 195 193 190 190 189 182 180 173 174 172 173 165 170 178 182 198 187 178 194 188 197 204 187 188 190 210 233 145 143 203 207 207 162 236 247 182 200 199 234 235 242 237 229 214 194 176 193 190
180 180 166 161 158 162 175 180 182 189 199 200 197 195 189 193 195 192 189 185 181 172 179 172 175 176 164 174 178 184 198 174 171 152 199 193 188 173 183 202 218 236 124 167 200 226 212 167 199 220 214 206 190 221 208 239 275 206 219 200 183 166 190
177 166 156 150 154 169 177 176 182 192 190 192 197 198 194 194 193 193 188 186 174 177 170 173 175 174 169 172 163 179 180 168 164 191 205 181 165 162 177 201 125 247 164 147 146 194 221 174 189 197 223 184 215 222 221 215 253 295 200 205 206 170 171
141 156 157 156 166 177 175 174 180 180 188 185 197 197 198 197 190 187 190 187 179 169 168 176 175 179 169 173 166 170 181 165 173 196 182 196 172 171 129 111 144 208 229 194 154 198 215 198 164 198 207 204 228 234 221 221 226 251 261 249 173 154 166
110 116 138 156 164 172 168 173 182 183 172 191 190 196 199 202 196 188 184 187 180 175 174 177 181 178 171 168 168 175 162 170 190 191 160 183 193 137 120 134 241 210 203 188 184 183 213 218 200 211 201 202 222 219 205 216 225 237 278 343 95 146 140
134 127 139 153 159 162 168 175 174 170 185 193 192 196 197 199 197 185 182 187 183 177 177 179 180 177 173 162 165 163 165 179 194 192 193 201 162 143 172 192 233 186 181 174 154 207 215 218 226 223 216 207 217 213 211 209 227 223 219 58 67 53 107
172 167 165 167 171 165 167 174 172 180 188 193 196 196 194 191 192 184 183 188 184 182 179 181 180 176 174 164 164 169 174 182 195 199 205 211 139 162 187 209 231 172 163 132 151 232 227 230 228 226 225 210 215 214 203 217 194 212 185 171 148 142 154
183 177 173 173 178 169 158 159 175 188 193 192 191 196 191 190 188 187 184 187 187 186 180 179 177 180 172 163 159 170 174 189 204 207 201 161 164 179 187 191 218 177 132 116 166 209 235 247 247 243 243 221 213 213 209 201 205 178 184 164 204 166 159
187 185 186 178 171 159 154 157 173 194 194 191 189 178 183 191 192 190 188 188 190 188 187 181 176 176 166 158 163 165 173 188 203 197 174 168 169 184 182 186 166 150 138 136 163 182 223 243 244 239 237 219 210 213 209 209 206 177 164 187 151 144 136
197 194 182 169 163 160 161 167 178 192 193 186 173 179 178 192 199 197 191 187 186 192 184 177 182 183 172 160 155 156 155 161 158 158 182 199 205 179 173 166 151 149 162 159 168 206 210 236 243 238 236 227 217 207 204 212 208 196 175 173 156 133 169
194 198 186 166 155 158 165 171 178 186 182 176 162 182 188 202 211 194 179 164 170 160 142 149 173 177 164 151 136 115 103 96 107 107 273 237 192 169 144 147 146 152 168 167 157 204 208 211 222 241 237 238 200 186 197 188 159 137 146 142 140 139 153
193 191 183 164 163 168 168 171 180 172 159 161 166 194 193 202 201 164 135 136 142 147 151 148 145 139 130 130 127 142 152 150 146 153 213 188 155 143 148 143 149 166 165 170 169 188 172 202 231 253 270 226 193 179 186 158 157 146 151 155 163 157 153
178 173 173 172 172 171 170 171 165 151 151 169 183 198 193 182 174 162 158 166 174 173 168 169 163 158 158 159 163 155 150 157 157 143 172 153 138 143 136 131 133 151 139 174 187 161 190 181 175 202 251 199 168 166 157 177 174 161 147 156 134 129 147
170 169 171 178 173 165 162 156 152 155 169 181 187 189 178 187 187 169 165 174 180 178 183 181 178 160 135 151 145 132 159 194 146 138 141 136 137 139 130 130 164 152 130 163 169 146 177 213 274 309 205 179 161 143 166 164 172 172 157 172 173 159 163
172 176 176 173 165 157 153 148 153 161 171 180 183 174 177 189 192 168 171 180 186 193 190 181 162 153 147 152 155 156 162 168 154 140 150 151 149 138 114 114 125 133 119 106 80 87 82 67 65 69 62 55 32 165 158 152 185 168 175 183 158 173 179
182 182 173 169 161 153 144 149 158 164 167 178 175 171 184 195 181 153 155 172 187 201 205 171 159 158 156 159 164 158 152 153 153 155 150 148 150 149 146 134 113 12 101 113 122 101 84 79 89 86 83 74 63 52 36 145 158 173 181 157 174 195 174
182 178 176 162 150 141 143 149 159 162 173 176 167 182 186 187 169 156 159 168 187 189 182 162 166 165 164 168 168 154 146 144 150 158 149 138 143 144 143 130 134 144 121 128 123 110 114 105 90 84 67 64 60 53 46 42 15 198 174 153 172 186 201
173 170 165 154 143 140 146 159 166 169 166 166 180 181 187 186 152 152 163 171 181 185 180 175 170 167 159 157 161 167 153 153 151 159 158 149 150 154 153 146 141 142 134 121 125 127 115 107 97 49 37 22 18 8 15 17 20 25 53 184 167 197 208
163 162 160 150 146 147 153 157 165 169 171 178 181 183 186 171 157 160 168 172 179 190 197 167 161 162 163 164 170 169 135 127 127 139 140 140 144 143 142 141 141 137 146 134 145 146 130 125 103 80 57 31 21 14 9 6 3 359 11 13 247 209 161
163 160 158 155 154 156 160 165 172 173 175 181 185 187 195 151 147 158 164 169 176 193 175 163 162 170 174 176 158 150 137 134 133 132 125 127 134 142 150 149 143 142 150 131 150 143 126 123 108 91 84 57 46 40 40 25 27 46 52 48 34 37 13
164 162 162 159 158 159 162 168 172 168 173 179 178 184 176 161 152 147 157 175 182 185 183 179 173 176 167 150 148 138 126 121 123 121 117 129 136 141 141 142 138 144 137 134 152 142 145 130 105 108 109 91 63 64 38 9 36 56 66 71 73 69 68
162 164 161 162 160 160 162 164 174 175 177 180 184 175 153 138 133 148 170 193 189 182 191 162 168 159 150 159 157 141 140 136 125 124 118 106 114 134 144 141 144 141 137 142 152 150 156 132 114 130 130 120 110 86 50 354 19 38 52 58 52 56 58
157 159 159 152 150 154 165 172 176 176 186 189 168 141 132 128 136 164 190 196 190 178 151 126 144 147 154 163 147 136 140 136 130 130 132 125 106 126 133 135 142 146 141 145 154 164 169 146 130 147 146 124 121 126 165 256 87 81 40 34 19 27 40
146 144 135 131 142 154 155 157 169 172 182 167 131 124 122 135 156 178 180 184 183 158 139 126 151 146 156 164 146 139 143 138 144 143 146 147 139 132 122 119 126 136 141 151 163 171 178 158 141 149 147 139 134 156 188 127 95 98 82 74 59 48 56
139 136 136 139 142 149 159 162 165 166 152 128 116 119 139 161 177 176 173 172 143 148 149 134 139 152 160 164 152 148 153 152 143 145 152 152 155 151 144 124 128 139 154 167 171 177 167 163 155 153 164 155 179 142 139 120 100 91 90 83 74 64 57
131 132 132 134 143 156 164 160 155 146 142 134 131 140 158 176 182 149 98 114 143 108 106 129 143 158 158 165 162 154 152 155 152 145 150 155 149 153 155 151 144 162 165 180 177 170 162 159 159 138 142 118 115 120 125 114 114 95 81 79 74 62 55
135 137 145 153 156 159 152 137 136 141 142 136 132 146 160 170 165 115 105 96 73 81 95 109 135 151 166 162 165 161 142 137 151 149 152 160 170 159 149 156 159 164 171 179 177 168 160 148 136 109 125 124 124 122 119 108 101 92 83 73 73 66 54
142 146 153 154 152 146 139 131 132 149 159 141 131 139 152 166 160 132 105 68 52 53 95 135 150 149 144 140 149 153 150 150 155 162 159 161 158 142 142 162 168 170 173 174 170 158 146 133 126 132 132 132 130 129 116 115 103 103 99 81 78 76 71